Location: Eggerberg
(46.3063°N, 7.8851°E)
Time: 06:33:04
(UTC+00:00)

Daily predictions for brighter satellites

Satellite Brightness Start Highest point End
(mag) Time Altitude Azimuth Time Altitude Azimuth Time Altitude Azimuth
USA 281 4.2 16:12:56 10° E 16:17:57 24° NE 16:22:58 10° N
Cosmos 2184 Rocket 4.1 16:12:34 10° N 16:18:59 73° E 16:25:20 10° SSE
Cosmos 1814 Rocket 4.1 16:17:06 10° SSW 16:22:27 86° ESE 16:27:47 10° NNE
Cosmos 1980 4.2 16:18:27 10° S 16:23:42 41° ESE 16:29:00 10° NE
Cosmos 2221 2.5 16:23:20 10° S 16:27:41 81° E 16:32:01 10° N
H-2A R/B 3.3 16:26:41 10° S 16:30:27 63° W 16:34:18 10° NNW
Cosmos 1570 Rocket 4.4 16:26:38 10° SSW 16:31:56 70° WNW 16:37:13 10° NNE
Abrixas rocket 2.3 16:30:37 10° WNW 16:33:21 57° SSW 16:36:04 10° ESE
Cosmos 1500 Rocket 3.5 16:29:01 10° N 16:33:26 75° E 16:37:50 10° SSE
Meteor 2-2 Rocket 4.4 16:29:05 10° S 16:35:03 81° E 16:40:57 10° NNE
YAOGAN 6 2.5 16:31:38 10° SSE 16:35:17 82° ENE 16:38:57 10° N
CZ-4C R/B 3.2 16:35:20 10° N 16:38:58 77° WNW 16:42:35 10° SSW
NOSS 2-1 (C) 4.5 16:34:25 10° NW 16:39:33 83° SW 16:46:48 10° SE
Cosmos 405 Rocket 2.7 16:37:44 10° N 16:41:39 84° ENE 16:45:37 10° SSE
ADEOS Rocket 3.8 16:36:21 10° NNE 16:44:00 78° WNW 16:51:46 10° SSW
YAOGAN 1 4.2 16:44:13 12° E 16:45:47 14° ENE 16:48:07 10° NNE
Cosmos 405 3.8 16:42:33 10° SSW 16:45:57 52° WNW 16:49:23 10° N
Cosmos 389 Rocket 3.4 16:43:40 10° SSE 16:46:36 27° E 16:49:22 11° NE
Cosmos 1943 Rocket 3.4 16:42:54 10° N 16:46:56 20° NE 16:50:05 13° E
Cosmos 44 4.4 16:45:37 10° NNW 16:50:08 28° NE 16:54:10 13° E
H-2A R/B 3.3 16:46:14 10° S 16:50:32 58° WSW 16:54:43 10° NNW
BREEZE-M DEB (TANK) 1.5 16:49:31 10° WSW 16:51:45 81° NNW 16:53:03 21° ENE
Cosmos 2322 Rocket 4.5 16:48:44 10° WNW 16:52:00 15° NW 16:55:17 10° N
SL-16 R/B 3.3 16:49:08 10° SSE 16:53:35 24° ESE 16:56:52 15° ENE
Cosmos 1867 4.4 16:48:55 10° S 16:53:38 31° ESE 16:57:17 15° ENE
USA 215 3.5 16:47:51 12° ENE 16:53:54 56° SE 17:00:18 10° SSW
Cosmos 1743 Rocket 4.1 16:51:18 10° NNW 16:55:44 63° W 17:00:07 10° S
CZ-2C R/B 4.0 16:51:55 10° ESE 16:55:52 23° ENE 16:59:42 10° NNE
COSMO-SKYMED 1 3.5 16:52:14 10° NE 16:55:57 27° E 16:59:38 10° SSE
Okean-O 3.8 16:53:47 10° ESE 16:57:08 22° ENE 17:00:30 10° NNE
Cosmos 2298 Rocket 4.4 16:52:19 10° NNW 16:57:37 70° WSW 17:02:53 10° S
Cosmos 2218 Rocket 4.5 16:52:50 10° N 16:58:25 35° ENE 17:03:58 10° SE
Cosmos 2150 Rocket 4.3 16:53:52 10° NNW 16:59:03 73° WSW 17:04:08 10° SSE
Cosmos 1818 3.7 16:55:03 10° NW 17:00:33 83° SW 17:06:00 10° SSE
AQUARIUS 4.2 16:56:42 10° SSE 17:01:12 86° W 17:05:43 10° NNW
Cosmos 1606 2.9 17:00:24 10° S 17:04:11 51° E 17:07:59 10° NNE
Sich 1 3.0 17:00:33 10° N 17:04:55 62° ENE 17:09:14 10° SSE
BREEZE-M TANK 4.2 17:00:29 10° WNW 17:06:13 37° SW 17:09:19 10° SE
Okean O Rocket 1.9 17:03:53 10° S 17:08:13 71° WSW 17:12:35 10° NNW
Cosmos 2333 Rocket 3.6 17:04:04 10° WSW 17:09:15 35° NW 17:14:26 10° NNE
Cosmos 2366 rocket 4.3 17:03:45 10° N 17:09:35 40° ENE 17:15:20 10° SE
Helios 1A Rocket 3.9 17:07:32 16° ESE 17:09:43 25° ENE 17:13:02 10° N
Nadezhda 1 Rocket 4.3 17:05:28 10° SSW 17:11:47 74° W 17:18:13 10° N
ISS -3.8 17:08:39 10° WSW 17:12:01 88° NNW 17:13:33 30° ENE
Cosmos 1125 Rocket 3.7 17:08:38 10° NNW 17:13:51 77° WSW 17:19:02 10° SSE
Cosmos 1356 3.3 17:11:15 10° N 17:14:40 63° ENE 17:18:03 10° SSE
COSMOS 2428 3.9 17:09:19 10° WSW 17:14:41 40° NW 17:20:04 10° NNE
Cosmos 1805 Rocket 3.7 17:11:23 10° NNW 17:15:51 77° W 17:20:16 10° S
Feng Yun 1-1 Rocket 4.3 17:10:17 10° SSE 17:16:03 68° ENE 17:21:42 10° N
Meteor 1-20 Rocket 4.4 17:10:23 10° N 17:16:06 51° ENE 17:21:45 10° SSE
SAR-Lupe-4 4.1 17:15:58 27° NE 17:17:15 37° E 17:20:36 10° SSE
CZ-4B R/B 1.0 17:17:16 17° NNE 17:19:31 81° ESE 17:22:36 10° S
Cosmos 2278 Rocket 3.2 17:15:33 10° NW 17:21:02 51° WSW 17:26:29 10° S
Cosmos 1151 Rocket 3.4 17:17:28 10° SSE 17:21:26 38° E 17:23:24 24° NE
Cosmos 1666 Rocket 3.5 17:17:43 10° N 17:22:04 60° ENE 17:26:26 10° SSE
IRS-1C Rocket 4.0 17:20:17 10° SSE 17:25:29 63° ENE 17:30:43 10° N
USA 267 3.2 17:21:46 16° ESE 17:27:05 68° NNE 17:33:33 10° NW
Cosmos 1328 Rocket 3.9 17:23:21 10° SSE 17:27:21 39° E 17:28:38 31° NE
Lacrosse 5 rocket 2.5 17:25:31 10° S 17:28:07 22° SE 17:28:07 22° SE
ERS-2 2.1 17:29:45 14° NNE 17:32:51 82° WNW 17:36:31 10° SSW
Cosmos 2341 Rocket 4.0 17:27:53 10° N 17:34:11 86° W 17:40:30 10° S
SAR-Lupe-1 4.0 17:33:31 42° NE 17:34:26 58° E 17:37:58 10° S
EO 1 Delta rocket 4.4 17:29:18 10° NNE 17:34:27 54° E 17:40:52 10° S
SL-24 R/B 3.9 17:32:45 29° NE 17:34:35 53° E 17:38:17 10° S
Meteor 1-25 Rocket 4.1 17:29:20 10° N 17:34:56 67° ENE 17:40:34 10° SSE
CZ-2D R/B 3.1 17:31:24 10° SSE 17:35:09 62° ENE 17:38:57 10° N
CZ-4 R/B 1.5 17:38:23 47° ENE 17:38:27 47° ENE 17:42:16 10° N
Cosmos 2219 Rocket 4.1 17:35:57 10° W 17:40:30 24° NW 17:45:02 10° N
H-2A R/B 4.0 17:37:30 10° N 17:41:00 27° WNW 17:44:31 10° WSW
TELKOM 3 4.1 17:39:34 10° WSW 17:41:32 44° WSW 17:41:32 44° WSW
CZ-3B R/B 3.7 17:41:42 10° S 17:42:22 12° SSE 17:42:22 12° SSE
BREEZE-M DEB (TANK) 2.9 17:41:34 10° WSW 17:43:13 39° WSW 17:43:13 39° WSW
SKYMED 2 3.4 17:40:45 16° NNE 17:44:13 84° ESE 17:48:34 10° SSW
USA 81 3.9 17:40:29 10° N 17:45:48 84° E 17:51:06 10° S
SL-24 DEB 4.2 17:42:53 10° NNE 17:47:37 59° E 17:52:16 10° S
CREW DRAGON DEMO-1 DEB 3.5 17:45:26 10° WNW 17:47:43 47° NW 17:47:43 47° NW
Cosmos 2285 Rocket 3.9 17:42:55 10° NNW 17:49:20 74° ENE 17:55:42 10° SSE
Cosmos 2237 Rocket 3.0 17:44:01 10° SW 17:49:28 50° WNW 17:54:26 13° NNE
Cosmos 1939 Rocket 3.3 17:47:04 10° S 17:50:52 59° W 17:54:43 10° NNW
Cosmos 1633 Rocket 3.1 17:48:24 10° N 17:52:48 80° W 17:57:09 10° S
H-2A R/B 2.2 17:52:26 38° ESE 17:53:55 49° ENE 17:58:56 10° N
SL-8 Rocket 4.1 17:52:07 10° NNW 17:58:20 75° W 18:04:34 10° S
Cosmos 864 Rocket 4.4 17:52:01 10° N 17:58:23 87° E 18:04:40 10° S
Cosmos 773 Rocket 4.0 17:53:16 10° S 17:58:25 59° ESE 17:59:15 52° ENE
CSL-04 Rocket 3.7 18:01:43 52° ENE 18:01:43 52° ENE 18:06:53 10° N
USA 281 3.2 17:55:09 10° SSE 18:01:44 88° WSW 18:08:21 10° NNW
Cosmos 2369 Rocket 2.7 17:57:28 10° NNW 18:02:10 39° NE 18:02:10 39° NE
Cosmos 2181 Rocket 4.2 17:58:30 10° SSW 18:04:56 76° W 18:11:21 10° N
Cosmos 783 Rocket 4.4 17:59:39 10° SSW 18:04:58 89° WNW 18:07:10 37° NNE
MOS 1 Rocket 3.5 18:03:47 40° NE 18:05:39 66° E 18:11:03 10° S
Cosmos 1821 Rocket 4.1 18:06:03 10° N 18:11:29 50° ENE 18:11:29 50° ENE
Cosmos 1241 Rocket 4.4 18:08:07 10° NW 18:14:47 83° NE 18:17:23 40° SE
YAOGAN 1 2.7 18:21:23 70° W 18:21:23 70° W 18:25:41 10° NNW
SL-08 R/B 4.4 18:20:54 10° N 18:27:06 88° W 18:33:12 10° S
Cosmos 1470 Rocket 4.2 18:23:54 10° NNW 18:27:22 49° NW 18:27:22 49° NW
Cosmos 2297 4.3 18:22:44 10° NW 18:28:16 54° WSW 18:33:48 10° S
Cosmos 1943 Rocket 2.1 18:25:50 10° NNW 18:31:23 84° WSW 18:31:41 79° S
Meteor 1-14 Rocket 4.4 18:25:37 10° NNW 18:31:33 79° W 18:37:31 10° S
Cosmos 44 3.8 18:26:32 10° NW 18:31:47 64° WSW 18:32:40 55° SSW
COSMO-SKYMED 1 4.2 18:29:20 16° NNW 18:32:07 32° WNW 18:35:59 10° SW
Okean-O 3.7 18:29:06 10° S 18:33:19 44° W 18:37:36 10° NNW
CZ-2C R/B 3.8 18:30:27 10° S 18:35:28 50° W 18:40:17 10° NNW
ARGOS 4.0 18:38:31 40° N 18:38:31 40° N 18:41:56 10° NNW
USA 215 3.6 18:35:13 45° NNE 18:36:56 58° NNW 18:43:19 10° WSW
Cosmos 1867 4.3 18:31:46 10° WSW 18:37:02 49° NW 18:37:58 44° NNW
SL-16 R/B 2.7 18:31:44 10° SW 18:37:18 57° WNW 18:38:47 43° N
ISS -0.5 18:46:00 10° WNW 18:46:31 13° WNW 18:46:31 13° WNW
Lacrosse 5 rocket 4.4 19:03:45 10° WSW 19:03:47 10° WSW 19:03:47 10° WSW
USA 267 4.0 19:09:08 40° SSW 19:10:19 44° SW 19:16:30 10° WNW
CZ-4 R/B 4.3 19:14:25 15° WNW 19:14:25 15° WNW 19:16:08 10° NW
ATLAS CENTAUR R/B 4.5 19:07:18 10° NW 19:24:45 53° WSW 19:27:27 41° SSW
H-2A R/B 4.1 19:33:03 24° WSW 19:33:33 25° W 19:37:49 10° NW
Cosmos 2369 Rocket 4.3 19:41:40 10° NW 19:43:59 22° WNW 19:43:59 22° WNW
